User: anonymous   Login
Location: Biltmore Gardens
(41.6070°N, 83.4666°W)
Time: 04:16:04
(UTC+00:00)
Language:

Vanguard 2 - Orbit

View from above orbital plane
View from above orbital plane
View from above satellite
View from above satellite

Ground track
Ground track

The orbit data is extracted from the following two-line orbital elements,

1    11U 59001A   21103.09531412  .00000235  00000-0  11971-3 0  9991
2    11  32.8700  10.3408 1468128 143.1549 227.9554 11.85786042652309
Epoch (UTC): 13 April 2021 02:17:15
Eccentricity: 0.1468128
inclination: 32.8700°
perigee height: 552 km
apogee height: 2938 km
right ascension of ascending node: 10.3408°
argument of perigee: 143.1549°
revolutions per day: 11.85786042
mean anomaly at epoch: 227.9554°
orbit number at epoch: 65230

The dashed part of the orbit path shows where the satellite is in the earth's shadow,  

DLR